CZ-6A DEB

Satellite information

Favourite Embed

Satellite Type and Status

DEBRISIN ORBIT

Key statistics

Satellite CZ-6A DEB at a glance.

Uptime

1076

Days in orbit

Revolutions

≈ 14.3

Per day

Orbit

SSO

Sun Synchronous Orbit

Inclination

98.8

Latest

Satellite identification and parameters

Extended collection of information and parameters for CZ-6A DEB.

Object identification

Identified? True

Debris? True

Object name: CZ-6A DEB

International designator: 2022-151VC

Object number (NORAD): 55187

Object ID (CCSDS): 55187

Country: PEOPLES REPUBLIC OF CHINA (PRC)

Current information (Y/N): Y

RCS size: SMALL

Orbital parameters

Period: 100.721 minutes

Inclination: 98.8127 deg

SMA: 7170.906 km

Apoapsis: 839.686 km

Periapsis: 745.857 km

RAAN: 308.918 deg

Eccentricy: 0.0065423

Argument of periapsis: 302.4311 deg

Mean anomaly: 57.0554 deg

Mean motion: 14.29689383 rev/day

Mean motion (dot): 0.00010857 rev/day2

B* drag term: 0.0041488 1/REarth

Two-line elements (TLE)

Creation date: Oct. 22, 2025, 12:06 a.m.

Reference frame: TEME

Reference center: EARTH

Epoch: Oct. 21, 2025, 7:28 p.m. UTC

TLE line 0: 0 CZ-6A DEB

TLE line 1: 1 55187U 22151VC 25294.81152191 .00010857 00000-0 41488-2 0 9995

TLE line 2: 2 55187 98.8127 308.9180 0065423 302.4311 57.0554 14.29689383149504

Live tracking on map

Real-time ground track for satellite CZ-6A DEB.

In-orbit conjunctions

A list of the most updated potential collisions computed for object CZ-6A DEB.

Target Orbit TCA Probability of collision Miss distance Type
SL-8 R/B LEO 2025-07-09 03:51:51 0.0001393743 743.0 (m) ROCKET BODY
IRIDIUM 33 DEB LEO 2024-12-26 03:28:35 0.0002274857 49.0 (m) DEBRIS

Associated space launch

Chinese satellite reported for atmospheric/ocean/environmental/spatial parameter research purposes, details TBD.

CZ-6A DEB was lifted into orbit during the mission ‘Long March 6A | Yunhai 3’, on board a Long March 6A space rocket.

The launch took place on Nov. 11, 2022, 10:52 p.m. from Launch Complex 9A.

For more information about the launch, click the button.

Launch to space Long March 6A | Yunhai 3
Long March 6A | Yunhai 3

Agency: N/A

Status: Launch Successful

Launch date: Nov. 11, 2022, 10:52 p.m. UTC

Rocket: Long March 6A

Launch pad: Launch Complex 9A

Location: Taiyuan Satellite Launch Center, People's Republic of China

...

Latest news about this satellite

There are no fresh news available about this satellite. Check back as we update our databases every day.


Newsletter sign-up

Weekly statistics, charts and insights to help you stay on top of the space industry.